FENGYUN 1C DEB, 35207

Orbit data source: Space-Track

FENGYUN 1C DEB, 35207 is space debris in SSO originally from a launch on Mon, 10 May 1999 UTC launched from the Taiyaun Space Center, China (TSC). Fengyun 1C debris stems from the Chinese weather satellite Fengyun-1C, which was intentionally destroyed by a Chinese anti-satellite missile in 2007. This event dramatically increased the amount of space debris, with thousands of trackable fragments posing hazards to satellites and human spaceflight. The Fengyun 1C debris cloud has become a focal point in discussions about space sustainability and the need for international regulations to prevent the creation of new debris.

Loading next visibility...
Identifier
35207, 1999-025DPP
Orbit
SSO
Country
Flag of CNCN / PRC
Related business
Manufacturer
Unknown
Mission
Spacecraft
Bus & Motor
Unknown
Mass
Unknown
Launch date (UTC)
1999-05-10 (27 years ago)
Launch vehicle
Unknown
Launch site
Taiyaun Space Center, China (TSC)
Object type
Payload
Rocket body
Debris
Shape & HBR
Unknown shape, 0.1 m
Radar Cross Section
Small (<0.1 m²)

Expand to show TLE details & history
Last TLE update: 2 weeks ago

TLE from 2 weeks ago
0 FENGYUN 1C DEB
1 35207U 99025DPP 26151.76206381  .00011144  00000-0  23575-2 0  9995
2 35207  98.6942 262.3945 0053730  96.2728 264.4594 14.58543764673805
Epoch: 2026-05-31T18:17Z
TLE epoch observation values (Epoch: 2026-05-31T18:17:22.313Z)
Latitude
0.00004°
Longitude
98.79243°
Altitude
704.721 km
Speed
7.501 km/s
True Right ascension
17h 29m 34s
True Declination
0° 00' 00"
Sunlit
Object was in full shadow at epoch
Visualization orbit readout
Latitude
Unknown
Longitude
Unknown
Altitude
Unknown
Speed
Unknown
Apparent Right ascension
Unknown
Apparent Declination
Unknown
Sunlit
N/A
Visualization observer readout
Local Sidereal Time
01:18:53
Azimuth
Unknown
Elevation
Unknown
Doppler factor
Unknown
Orbital elements
Apogee altitude
732.99 km
Perigee altitude
656.982 km
Semi-major axis
7,073.123 km
Eccentricity
0.00537
Inclination
98.6942°
RAAN
262.3945°
Arg. of periapsis
96.2728°
True anomaly
263.84698°
Mean anomaly
264.4594°
Eccentric anomaly
264.15315°
Mean motion
3.6486 °/min
Orbital period
98.67 mins
BSTAR
0.0023575
Loading maneuver chart data...
Computing Atmospheric mass density...

Documentation

Showing up to 5 results
|